sat.trackr.live / text

‹ back to catalog

STARLINK-33927

NORAD 64001 · 2025-101H

PAYLOAD ACTIVE UNKNOWN

§ Identity

Operator
Country
US
Launch date
2025-05-14
Launch site
AFETR
Launch vehicle
Mass (kg)
RCS (m²)

Purposes: comms

External: N2YO · Heavens-Above · Gunter

§ Orbital elements

Epoch: 2026-09-20T11:58:06.780576Z

Period
94.27 min
Inclination
43.0054°
Eccentricity
0.0000880
Mean motion
15.27578847 rev/d
Perigee alt
482.4 km
Apogee alt
483.7 km
Semi-major
6,861.2 km
B*
3.1928e-4
RAAN
338.2316°
Arg perigee
265.2366°
Mean anomaly
94.8385°
Rev number
7,684

§ Raw data

STARLINK-339271 64001U 25101H   26263.49868959  .00008534  00000+0  31928-3 0  99922 64001  43.0054 338.2316 0000880 265.2366  94.8385 15.27578847 76847

JSON: /api/v1/satellites/64001 · /tle

For live sub-satellite position, see the globe view (requires WebGL).

§ Visibility from observer

Set your observer location to see the next 7 days of passes ≥ 10°. The values pass through the URL so the page stays shareable.

No JS? Fill the form by hand. The geolocation button needs JavaScript.